| time (UTC) | temp F | wind direction | speed MPH | gust MPH | rain 1hr in | rain 24hr in | rain mn in | humidity % | barometer mb |
| 20260506131556 | 66 | 191 | 13.0 | 22.0 | 0.00 | 0.00 | 0.00 | 69 | 1009.9 |
| 20260506130058 | 66 | 181 | 13.0 | 20.0 | 0.00 | 0.00 | 0.00 | 69 | 1009.7 |
| 20260506124601 | 66 | 172 | 13.0 | 21.0 | 0.00 | 0.00 | 0.00 | 70 | 1009.7 |
| 20260506123057 | 65 | 188 | 10.0 | 18.0 | 0.00 | 0.00 | 0.00 | 71 | 1009.7 |
| 20260506121556 | 65 | 180 | 11.0 | 21.0 | 0.00 | 0.00 | 0.00 | 72 | 1009.9 |
| 20260506120058 | 64 | 141 | 9.0 | 17.0 | 0.00 | 0.00 | 0.00 | 72 | 1010.1 |
| 20260506114559 | 64 | 153 | 12.0 | 19.0 | 0.00 | 0.00 | 0.00 | 74 | 1010.1 |
| 20260506113058 | 63 | 173 | 9.0 | 18.0 | 0.00 | 0.00 | 0.00 | 75 | 1010.2 |
| 20260506111555 | 64 | 168 | 12.0 | 21.0 | 0.00 | 0.00 | 0.00 | 74 | 1010.2 |
| 20260506110055 | 64 | 155 | 11.0 | 18.0 | 0.00 | 0.00 | 0.00 | 75 | 1010.1 |
| 20260506104558 | 63 | 183 | 9.0 | 17.0 | 0.00 | 0.00 | 0.00 | 76 | 1010.2 |
| 20260506103104 | 64 | 181 | 10.0 | 18.0 | 0.00 | 0.00 | 0.00 | 75 | 1010.1 |
| 20260506101559 | 64 | 172 | 12.0 | 19.0 | 0.00 | 0.00 | 0.00 | 74 | 1009.9 |
| 20260506100100 | 64 | 156 | 12.0 | 18.0 | 0.00 | 0.00 | 0.00 | 74 | 1009.9 |
| 20260506094603 | 64 | 168 | 11.0 | 21.0 | 0.00 | 0.00 | 0.00 | 74 | 1009.8 |
| 20260506093103 | 64 | 162 | 12.0 | 21.0 | 0.00 | 0.00 | 0.00 | 74 | 1009.9 |
| 20260506091602 | 64 | 165 | 14.0 | 21.0 | 0.00 | 0.00 | 0.00 | 74 | 1009.9 |
| 20260506084607 | 65 | 162 | 14.0 | 23.0 | 0.00 | 0.00 | 0.00 | 73 | 1010.1 |
| 20260506083058 | 65 | 168 | 12.0 | 22.0 | 0.00 | 0.00 | 0.00 | 73 | 1010.0 |
| 20260506081554 | 65 | 197 | 13.0 | 26.0 | 0.00 | 0.00 | 0.00 | 73 | 1010.2 |
| 20260506080106 | 65 | 175 | 13.0 | 24.0 | 0.00 | 0.00 | 0.00 | 72 | 1010.2 |
| 20260506073058 | 66 | 179 | 14.0 | 21.0 | 0.00 | 0.00 | 0.00 | 70 | 1010.2 |
| 20260506071604 | 66 | 168 | 12.0 | 21.0 | 0.00 | 0.00 | 0.00 | 69 | 1010.3 |
| 20260506061553 | 67 | 175 | 12.0 | 17.0 | 0.00 | 0.00 | 0.00 | 67 | 1010.3 |
| 20260506050104 | 67 | 178 | 11.0 | 17.0 | 0.00 | 0.00 | 0.00 | 65 | 1011.1 |
| 20260506044555 | 67 | 177 | 11.0 | 19.0 | 0.00 | 0.00 | 0.00 | 64 | 1011.0 |
| 20260506043054 | 67 | 181 | 11.0 | 22.0 | 0.00 | 0.00 | 0.00 | 64 | 1011.0 |
| 20260506041556 | 68 | 187 | 12.0 | 20.0 | 0.00 | 0.00 | 0.00 | 63 | 1011.0 |
| 20260506040056 | 68 | 176 | 11.0 | 19.0 | 0.00 | 0.00 | 0.00 | 62 | 1010.9 |
| 20260506034613 | 67 | 160 | 12.0 | 19.0 | 0.00 | 0.00 | 0.00 | 62 | 1010.9 |
| 20260506033054 | 68 | 193 | 14.0 | 21.0 | 0.00 | 0.00 | 0.00 | 61 | 1010.9 |
| 20260506031556 | 68 | 160 | 13.0 | 25.0 | 0.00 | 0.00 | 0.00 | 61 | 1010.7 |
| 20260506030053 | 68 | 159 | 13.0 | 24.0 | 0.00 | 0.00 | 0.00 | 59 | 1010.6 |
| 20260506024616 | 68 | 163 | 12.0 | 24.0 | 0.00 | 0.00 | 0.00 | 59 | 1010.7 |
| 20260506023056 | 69 | 183 | 14.0 | 23.0 | 0.00 | 0.00 | 0.00 | 58 | 1010.7 |
| 20260506021557 | 69 | 197 | 14.0 | 24.0 | 0.00 | 0.00 | 0.00 | 59 | 1010.6 |
| 20260506020053 | 70 | 170 | 17.0 | 26.0 | 0.00 | 0.00 | 0.00 | 57 | 1010.6 |
| 20260506014556 | 70 | 163 | 14.0 | 22.0 | 0.00 | 0.00 | 0.00 | 56 | 1010.4 |
| 20260506013108 | 70 | 193 | 10.0 | 24.0 | 0.00 | 0.00 | 0.00 | 56 | 1010.1 |
| 20260506011605 | 69 | 204 | 12.0 | 23.0 | 0.00 | 0.00 | 0.00 | 58 | 1009.9 |
| 20260506010058 | 72 | 170 | 18.0 | 36.0 | 0.00 | 0.00 | 0.00 | 52 | 1009.8 |
| 20260506004554 | 73 | 165 | 9.0 | 15.0 | 0.00 | 0.00 | 0.00 | 50 | 1009.7 |
| 20260506003053 | 74 | 157 | 9.0 | 18.0 | 0.00 | 0.00 | 0.00 | 47 | 1009.4 |
| 20260506001555 | 75 | 181 | 12.0 | 18.0 | 0.00 | 0.00 | 0.00 | 43 | 1009.3 |
| 20260506000055 | 74 | 183 | 9.0 | 19.0 | 0.00 | 0.00 | 0.00 | 44 | 1009.2 |
| 20260505234552 | 75 | 175 | 11.0 | 18.0 | 0.00 | 0.00 | 0.00 | 43 | 1009.0 |
| 20260505233102 | 77 | 190 | 11.0 | 20.0 | 0.00 | 0.00 | 0.00 | 39 | 1008.9 |
| 20260505231552 | 78 | 139 | 14.0 | 26.0 | 0.00 | 0.00 | 0.00 | 36 | 1008.4 |
| 20260505230104 | 79 | 210 | 17.0 | 29.0 | 0.00 | 0.00 | 0.00 | 31 | 1008.3 |
| 20260505224554 | 78 | 186 | 16.0 | 29.0 | 0.00 | 0.00 | 0.00 | 31 | 1008.1 |
| 20260505223108 | 79 | 214 | 10.0 | 26.0 | 0.00 | 0.00 | 0.00 | 32 | 1008.2 |
| 20260505221559 | 79 | 192 | 12.0 | 21.0 | 0.00 | 0.00 | 0.00 | 36 | 1008.1 |
| 20260505220108 | 79 | 185 | 14.0 | 32.0 | 0.00 | 0.00 | 0.00 | 35 | 1007.8 |
| 20260505214553 | 79 | 212 | 13.0 | 28.0 | 0.00 | 0.00 | 0.00 | 35 | 1007.7 |
| 20260505213100 | 79 | 207 | 14.0 | 36.0 | 0.00 | 0.00 | 0.00 | 35 | 1007.6 |
| 20260505211553 | 79 | 204 | 17.0 | 27.0 | 0.00 | 0.00 | 0.00 | 34 | 1007.7 |
| 20260505210054 | 79 | 189 | 16.0 | 27.0 | 0.00 | 0.00 | 0.00 | 32 | 1007.5 |
| 20260505204601 | 79 | 181 | 15.0 | 30.0 | 0.00 | 0.00 | 0.00 | 33 | 1007.6 |
| 20260505203108 | 79 | 191 | 18.0 | 30.0 | 0.00 | 0.00 | 0.00 | 34 | 1007.6 |
| 20260505201552 | 78 | 171 | 12.0 | 27.0 | 0.00 | 0.00 | 0.00 | 35 | 1007.6 |
| 20260505200054 | 78 | 143 | 14.0 | 21.0 | 0.00 | 0.00 | 0.00 | 37 | 1007.7 |
| 20260505194605 | 77 | 178 | 12.0 | 22.0 | 0.00 | 0.00 | 0.00 | 40 | 1008.0 |
| 20260505193056 | 75 | 214 | 8.0 | 18.0 | 0.00 | 0.00 | 0.00 | 47 | 1008.3 |
| 20260505191558 | 78 | 144 | 8.0 | 17.0 | 0.00 | 0.00 | 0.00 | 42 | 1008.5 |
| 20260505190053 | 78 | 167 | 12.0 | 21.0 | 0.00 | 0.00 | 0.00 | 41 | 1008.8 |
| 20260505184555 | 78 | 195 | 13.0 | 27.0 | 0.00 | 0.00 | 0.00 | 40 | 1009.1 |
| 20260505183101 | 77 | 199 | 10.0 | 25.0 | 0.00 | 0.00 | 0.00 | 42 | 1009.2 |
| 20260505181555 | 76 | 206 | 11.0 | 20.0 | 0.00 | 0.00 | 0.00 | 45 | 1009.2 |
| 20260505180056 | 77 | 187 | 10.0 | 21.0 | 0.00 | 0.00 | 0.00 | 42 | 1009.2 |
| 20260505174558 | 77 | 195 | 11.0 | 17.0 | 0.00 | 0.00 | 0.00 | 43 | 1009.3 |
| 20260505173056 | 76 | 218 | 12.0 | 20.0 | 0.00 | 0.00 | 0.00 | 44 | 1009.6 |
| 20260505171555 | 72 | 175 | 9.0 | 15.0 | 0.00 | 0.00 | 0.00 | 51 | 1009.8 |
| 20260505170057 | 74 | 185 | 9.0 | 17.0 | 0.00 | 0.00 | 0.00 | 47 | 1009.9 |
| 20260505164601 | 71 | 191 | 7.0 | 12.0 | 0.00 | 0.00 | 0.00 | 52 | 1010.2 |
| 20260505163100 | 70 | 194 | 9.0 | 14.0 | 0.00 | 0.00 | 0.00 | 54 | 1010.3 |
| 20260505161553 | 70 | 183 | 7.0 | 14.0 | 0.00 | 0.00 | 0.00 | 56 | 1010.4 |
| 20260505153115 | 71 | 182 | 7.0 | 14.0 | 0.00 | 0.00 | 0.00 | 52 | 1010.9 |
| 20260505151600 | 70 | 176 | 8.0 | 14.0 | 0.00 | 0.00 | 0.00 | 55 | 1011.1 |
| 20260505140107 | 65 | 177 | 11.0 | 16.0 | 0.00 | 0.00 | 0.00 | 64 | 1011.4 |